Location: Andrest
(43.3200°N, 0.0641°E)
Time: 14:17:30
(UTC+00:00)

Cosmos 44 Rocket - Pass Details

Date: 01 December 2020
Orbit: 639 x 751 km, 65.1° (Epoch: 22 January)

Event Time Altitude Azimuth Distance (km) Brightness Sun altitude
Rises 19:17:06 0° 321° (NW) 3,179 7.2 -30.6°
Reaches altitude 10° 19:19:32 10° 316° (NW) 2,263 6.4 -31.1°
Enters shadow 19:23:59 47° 263° (W) 990 4.3 -31.9°
